Regional Weather Roundup
Issued by NWS Burlington, VT

Home | Current Version | Previous Version | Text Only | Print | Product List | Glossary On
Versions: 1 2 3 4 5 6 7 8 9 10 11 12 13 14 15 16 17 18 19 20 21 22 23 24 25 26 27 28 29 30 31 32 33 34 35 36 37 38 39 40 41 42 43 44 45 46 47 48 49 50
000
ASUS41 KBTV 260610
RWRBTV
VERMONT REGIONAL WEATHER ROUNDUP
NATIONAL WEATHER SERVICE BURLINGTON VT
200 AM EDT SUN APR 26 2015

NOTE: "FAIR" INDICATES FEW OR NO CLOUDS BELOW 12,000 FEET WITH NO
SIGNIFICANT WEATHER AND/OR OBSTRUCTIONS TO VISIBILITY.

* THESE REPORTS ARE NOT UNDER NWS QUALITY CONTROL AND/OR DO NOT
  REPORT WEATHER SUCH AS PRECIPITATION AND FOG.

VTZ001>019-260700-
_____VERMONT_____


CITY           SKY/WX    TMP DP  RH WIND       PRES   REMARKS
BURLINGTON     CLOUDY    43  31  62 SW3       29.72S
6HR MIN TEMP:  43; 6HR MAX TEMP:  47;

MONTPELIER     CLOUDY    36  31  82 CALM      29.73F
6HR MIN TEMP:  35; 6HR MAX TEMP:  38;

MORRISVILLE    CLOUDY    37  32  82 CALM      29.72S
6HR MIN TEMP:  36; 6HR MAX TEMP:  41;

ST. JOHNSBURY*   N/A     38  33  82 MISG      29.69F
6HR MIN TEMP:  38; 6HR MAX TEMP:  42;

LYNDONVILLE*   CLOUDY    36  31  82 CALM      29.70F
6HR MIN TEMP:  36; 6HR MAX TEMP:  39;

MIDDLEBURY*    CLOUDY    41  33  72 CALM      29.72F
6HR MIN TEMP:  40; 6HR MAX TEMP:  45;

RUTLAND*       CLOUDY    39  32  75 CALM      29.71F
6HR MIN TEMP:  39; 6HR MAX TEMP:  45;

SPRINGFIELD    CLOUDY    38  31  76 CALM      29.71F
6HR MIN TEMP:  38; 6HR MAX TEMP:  47;

HIGHGATE*      CLOUDY    41  33  74 CALM      29.72S
6HR MIN TEMP:  39; 6HR MAX TEMP:  44;

NEWPORT*       CLOUDY    35  32  90 CALM      29.70F
6HR MIN TEMP:  35; 6HR MAX TEMP:  37;

BENNINGTON     CLOUDY    42  30  62 SW3       29.70F
6HR MIN TEMP:  40; 6HR MAX TEMP:  49;


_____LAKE CHAMPLAIN_____


CITY           SKY/WX    TMP DP  RH WIND       PRES   REMARKS

$$

NYZ007-026>031-035-052-083-260700-
_____NORTHERN NEW YORK_____


CITY           SKY/WX    TMP DP  RH WIND       PRES   REMARKS
PLATTSBURGH    CLOUDY    46  31  55 NW6       29.72S
6HR MIN TEMP:  41; 6HR MAX TEMP:  47;

SARANAC LAKE   CLOUDY    35  29  78 SW3       29.71F
6HR MIN TEMP:  35; 6HR MAX TEMP:  41;

MASSENA        PTCLDY    41  30  65 NW6       29.78S
6HR MIN TEMP:  41; 6HR MAX TEMP:  48;

OGDENSBURG*    PTCLDY    39  32  75 N7        29.78S
POTSDAM*       CLOUDY    39  34  81 CALM      29.76F
WATERTOWN      CLOUDY    39  31  72 CALM      29.78F
6HR MIN TEMP:  39; 6HR MAX TEMP:  40;

FT DRUM        CLOUDY    38  29  69 W3        29.76F
6HR MIN TEMP:  38; 6HR MAX TEMP:  42;

ALBANY         CLOUDY    43  28  55 CALM      29.73F
6HR MIN TEMP:  42; 6HR MAX TEMP:  51;

GLENS FALLS    CLOUDY    46  29  51 NW6       29.72F
6HR MIN TEMP:  45; 6HR MAX TEMP:  50;


$$
NHZ002-005-011-260700-
_____NEW HAMPSHIRE_____


CITY           SKY/WX    TMP DP  RH WIND       PRES   REMARKS
LEBANON        CLOUDY    38  31  76 CALM      29.70F
6HR MIN TEMP:  37; 6HR MAX TEMP:  44;

KEENE          CLOUDY    37  32  81 CALM      29.71F
6HR MIN TEMP:  37; 6HR MAX TEMP:  48;

MT WASHINGTON  FOG       19  19 100 N31         N/A  VSB 0   WCI   0
6HR MIN TEMP:  18; 6HR MAX TEMP:  20;

PLYMOUTH       CLOUDY    39  36  88 CALM      29.70F
6HR MIN TEMP:  39; 6HR MAX TEMP:  41;

WHITEFIELD     CLOUDY    35  33  92 CALM      29.69F
6HR MIN TEMP:  35; 6HR MAX TEMP:  39; 6HR PCP: TRACE;


$$

_____REGIONAL QUEBEC LOCATIONS_____


CITY           SKY/WX    TMP DP  RH WIND       PRES   REMARKS
MONTREAL       MOCLDY    43  32  65 N8        29.75S
QUEBEC CITY    CLOUDY    36  34  93 W2        29.68F
SHERBROOKE     CLOUDY    36  36 100 W3        29.68F

_____REGIONAL ONTARIO LOCATIONS_____


CITY           SKY/WX    TMP DP  RH WIND       PRES   REMARKS
OTTAWA         MOCLDY    37  30  75 NW8       29.79S

______KEY______
VSB  - VISIBILITY IN MILES
WCI  - WIND CHILL INDEX
HX   - HEAT INDEX
$$



USA.gov is the U.S. government's official web portal to all federal, state and local government web resources and services.